This is the latest recevied weather packets stored in our database for station/object LKNA. If no packets are shown the sender has not sent any weather packets the latest 1 day(s).
| Time | Temp. | Humidity | Pressure | Rain* | Wind** | Luminosity | Snow |
|---|---|---|---|---|---|---|---|
| 1778026833 | 13.89° C | 67% | - | - | 3.13 m/s, 250° | - | - |
| 1778025762 | 13.89° C | 67% | 1006 hPa | - | 2.68 m/s, 230° | - | - |
| 1778023870 | 13.89° C | 67% | 1006 hPa | - | 2.68 m/s, 110° | - | - |
| 1778023232 | 13.89° C | 67% | - | - | 3.13 m/s, 100° | - | - |
| 1778022065 | 13.89° C | 67% | 1005 hPa | - | 2.24 m/s, 110° | - | - |
| 1778020270 | 13.89° C | 67% | 1005 hPa | - | 3.58 m/s, 110° | - | - |
| 1778019634 | 13.89° C | 67% | - | - | 4.02 m/s, 120° | - | - |
| 1778018562 | 15° C | 62% | 1005 hPa | - | 4.47 m/s, 110° | - | - |
| 1778016669 | 15° C | 58% | 1005 hPa | - | 4.47 m/s, 110° | - | - |
| 1778016083 | 15° C | 58% | - | - | 5.36 m/s, 110° | - | - |
| 1778014973 | 15° C | 58% | 1005 hPa | - | 4.47 m/s, 110° | - | - |
| 1778013076 | 16.11° C | 55% | 1005 hPa | - | 4.47 m/s, 100° | - | - |
| 1778012455 | 16.11° C | 55% | - | - | 5.36 m/s, 110° | - | - |
| 1778011265 | 16.11° C | 55% | 1005 hPa | - | 5.36 m/s, 110° | - | - |
| 1778009470 | 17.22° C | 51% | 1005 hPa | - | 5.36 m/s, 110° | - | - |
| 1778008866 | 17.22° C | 51% | - | - | 5.36 m/s, 110° | - | - |
| 1778007664 | 17.22° C | 51% | 1005 hPa | - | 5.36 m/s, 100° | - | - |
| 1778005870 | 18.89° C | 45% | 1005 hPa | - | 5.81 m/s, 110° | - | - |
| 1778005249 | 18.89° C | 45% | - | - | 7.15 m/s, 120° | - | - |
| 1778004160 | 20° C | 42% | 1005 hPa | - | 6.71 m/s, 130° | - | - |
| 1778002269 | 21.11° C | 40% | 1005 hPa | - | 7.15 m/s, 130° | - | - |
| 1778001665 | 22.22° C | 37% | - | - | 7.15 m/s, 140° | - | - |
| 1778000560 | 22.78° C | 35% | 1005 hPa | - | 6.26 m/s, 140° | - | - |
| 1777998664 | 23.89° C | 31% | 1005 hPa | - | 6.26 m/s, 130° | - | - |
| 1777998141 | 23.89° C | 27% | - | - | 6.26 m/s, 120° | - | - |
* Rain since midnight (hover to see other rain measurements)
** Current wind speed in m/s (hover to see current wind gust speed)